Location: Newark
(50.8547°N, 2.7256°E)
Time: 20:02:44
(UTC+00:00)

Envisat - Pass Details

Date: 27 January 2020
Orbit: 764 x 766 km, 98.1° (Epoch: 22 February)

Event Time Altitude Azimuth Distance (km) Brightness Sun altitude
Rises 04:56:35 0° 31° (NNE) 3,244 6.7 -24.5°
Reaches altitude 10° 05:00:34 10° 62° (ENE) 2,310 6.3 -23.9°
Maximum altitude 05:02:28 12° 84° (E) 2,172 6.4 -23.6°
Drops below altitude 10° 05:04:21 10° 106° (ESE) 2,303 6.5 -23.3°
Sets 05:08:18 0° 137° (SE) 3,222 6.9 -22.7°
